Regional Weather Roundup
Issued by NWS

Home | Current Version | Previous Version | Graphics & Text | Print | Product List | Glossary On
Versions: 1 2 3 4 5 6 7 8 9 10 11 12 13 14 15 16 17 18 19 20 21 22 23 24 25 26 27 28 29 30 31 32 33 34 35 36 37 38 39 40 41 42 43 44 45 46 47 48 49 50
000
ASUS43 KLOT 292058
RWRIL

ILLINOIS REGIONAL WEATHER ROUNDUP
NATIONAL WEATHER SERVICE CHICAGO/ROMEOVILLE IL
400 PM CDT FRI JUL 29 2016

NOTE: "FAIR" INDICATES FEW OR NO CLOUDS BELOW 12,000 FEET WITH NO
SIGNIFICANT WEATHER AND/OR OBSTRUCTIONS TO VISIBILITY.

* THESE STATIONS ARE NOT UNDER NWS QUALITY CONTROL. THEY ALSO MAY NOT
  REPORT WEATHER SUCH AS PRECIPITATION OR FOG.

ILZ001-002-007-009-015-016-024-292200-
NORTHWEST ILLINOIS

CITY           SKY/WX    TMP DP  RH WIND       PRES   REMARKS
MOLINE         NOT AVBL
$$

ILZ003-004-008-010-011-017-018-292200-
NORTH CENTRAL ILLINOIS

CITY           SKY/WX    TMP DP  RH WIND       PRES   REMARKS
ROCKFORD       NOT AVBL
$$

ILZ005-006-012>014-019>023-292200-
NORTHEAST ILLINOIS

CITY           SKY/WX    TMP DP  RH WIND       PRES   REMARKS
CHICAGO-OHARE  LGT RAIN  72  69  90 NE8       29.93F FOG
CHICAGO-MIDWAY NOT AVBL
AURORA         PTSUNNY   75  68  78 E17G23    29.91F
WAUKEGAN       NOT AVBL
DUPAGE AIRPORT LGT RAIN  73  70  88 NE10      29.91F FOG
WHEELING       NOT AVBL
NORTHERLY ISL    N/A     73  69  87 N9          N/A
$$

LMZ740>746-292200-
SOUTHERN LAKE MICHIGAN

STATION/POSITION SKY/WX   TEMP    WIND        PRES    VSBY  WAVE
                          AIR SEA DIR/SP/G                  HT/PER
                          (F)     (DEG/KT/KT) (MB)    (MI)  (FT/S)
SOUTHERN BUOY              72 74   60/ 16/ 17 1012.9F         3/ 5
WILMETTE HARBOR            74 73   60/  8/ 12   N/A           3/ 5
HARRISON CRIB              75      40/  9/  9   N/A
BURNHAM HARBOR             74     360/  6/ 10   N/A
CALUMET HARBOR             74     360/  6/  8 1012.6R
BURNS HARBOR               71     210/ 11/ 16 1013.5R
MICHIGAN CITY              68     160/  2/  3   N/A
MICHIGAN CITY 6N           70 77  120/ 12/ 19   N/A           3/ 5
ST. JOSEPH                 77 77  130/  6/  8 1012.5S         2
$$

ILZ025>027-034>036-040-047-049-050-058-095>099-292200-
WEST-CENTRAL ILLINOIS

CITY           SKY/WX    TMP DP  RH WIND       PRES   REMARKS
GALESBURG*     PTSUNNY   79  67  67 W10       29.92F HX  81
$$

ILZ028>032-037-038-041>044-048-051>054-059>061-292200-
CENTRAL ILLINOIS

CITY           SKY/WX    TMP DP  RH WIND       PRES   REMARKS
PEORIA         NOT AVBL
SPRINGFIELD    NOT AVBL
TAYLORVILLE    NOT AVBL
$$

ILZ033-039-045-046-055>057-062-063-292200-
EAST-CENTRAL ILLINOIS

CITY           SKY/WX    TMP DP  RH WIND       PRES   REMARKS
$$

ILZ079-100>102-292200-
SOUTHWEST ILLINOIS

CITY           SKY/WX    TMP DP  RH WIND       PRES   REMARKS
ALTON          PTSUNNY   82  70  65 NW10      29.92F HX  86
$$

ILZ064>066-069>071-074>076-080>082-084>086-088>090-092>094-292200-
SOUTH-CENTRAL ILLINOIS

CITY           SKY/WX    TMP DP  RH WIND       PRES   REMARKS
CARBONDALE     LGT RAIN  74  71  91 S9        29.93S
$$

ILZ067-068-072-073-078-083-087-091-292200-
SOUTHEAST ILLINOIS

CITY           SKY/WX    TMP DP  RH WIND       PRES   REMARKS
$$

ABBREVIATIONS USED IN REMARKS
   TC - TEMPERATURE IN CELSIUS
  WCI - WIND CHILL INDEX
   HX - HEAT INDEX
  VSB - VISIBILITY
$$




USA.gov is the U.S. government's official web portal to all federal, state and local government web resources and services.